Regional Weather Roundup
Issued by NWS

Home | Current Version | Previous Version | Text Only | Print | Product List | Glossary On
Versions: 1 2 3 4 5 6 7 8 9 10 11 12 13 14 15 16 17 18 19 20 21 22 23 24 25 26 27 28 29 30 31 32 33 34 35 36 37 38 39 40 41 42 43 44 45 46 47 48 49 50
000
ASUS43 KLMK 011110
RWRKY
KENTUCKY REGIONAL WEATHER ROUNDUP
NATIONAL WEATHER SERVICE LOUISVILLE KY
700 AM EDT MON SEP 01 2014

NOTE "FAIR" INDICATES FEW OR NO CLOUDS BELOW 12,000 FEET
WITH NO SIGNIFICANT WEATHER AND/OR OBSTRUCTIONS TO VISIBILITY.

KYZ001>023-026-027-061>063-070>075-011200-
WESTERN AND SOUTH CENTRAL KENTUCKY

CITY           SKY/WX    TMP DP  RH WIND       PRES   REMARKS
PADUCAH        CLOUDY    77  73  87 SW7       29.98R
HENDERSON      MOCLDY    73  70  88 SW8       29.98R
OWENSBORO      NOT AVBL
HOPKINSVILLE   CLOUDY    74  74 100 S8        30.03R
BOWLING GREEN  PTCLDY    73  70  90 S6        30.04S
GLASGOW        PTCLDY    72  72 100 S5        30.05F
$$

KYZ024-025-028>034-038-045-046-053-011200-
NORTH CENTRAL KENTUCKY

CITY           SKY/WX    TMP DP  RH WIND       PRES   REMARKS
LOUISVILLE/SDF CLOUDY    76  72  87 S10       30.00S
LOUISVILLE/LOU CLOUDY    75  72  90 S5        30.01S
FORT KNOX      CLOUDY    73  73 100 S8        30.02S
$$

KYZ035>037-039>044-047>052-055>060-089>105-011200-
NORTHEAST KENTUCKY

CITY           SKY/WX    TMP DP  RH WIND       PRES   REMARKS
LEXINGTON      CLOUDY    75  71  87 S12       30.06S
COVINGTON      CLOUDY    74  71  91 S8        30.01S
FRANKFORT      CLOUDY    74  72  93 SW9       30.03S
$$

KYZ054-064>069-076>088-106>120-011200-
SOUTHEAST KENTUCKY

CITY           SKY/WX    TMP DP  RH WIND       PRES   REMARKS
JACKSON        CLOUDY    71  69  93 CALM      30.11R
LONDON         CLOUDY    72  67  84 S6        30.12R
SOMERSET       CLOUDY    70  70 100 CALM      30.11R
MIDDLESBORO    CLOUDY    67  67 100 CALM      30.14R
MONTICELLO     SUNNY     72  70  93 S5        30.11S
$$



USA.gov is the U.S. government's official web portal to all federal, state and local government web resources and services.